Flag for Germany Weather past 2 weeks in Limburg an der Lahn, Hesse, Germany

Now
66 °F

Scattered clouds.


Feels Like: 66 °F
Forecast: 55 / 76 °F
Wind: 6 mph from Southwest

Location: Hessen

Current Time: Sep 19, 2014 at 4:39:50 PM

Latest Report: Sep 19, 2014 at 3:50 PM


Visibility: N/A

Pressure: 29.95 "Hg

Humidity: 88%

Dew point: 63 °F

Location of Limburg an der LahnLocation

Historic Weather in Limburg an der Lahn — Graph

°F

Limburg an der Lahn temperature yesterday

Maximum temperature yesterday: 66 °F (at 4:50 PM)
Minimum temperature yesterday: 55 °F (at 7:50 AM)
Average temperature yesterday: 61 °F

Past Weeks' High & Low Weather Summary

 TemperatureHumidityPressure
High73 °F (Sep 6, 1:50 PM)100% (Sep 5, 7:50 AM)30.24 "Hg (Sep 5, 7:50 AM)
Low48 °F (Sep 9, 7:20 AM)56% (Sep 6, 10:50 AM)29.92 "Hg (Sep 17, 5:20 PM)
Average59 °F87%30.05 "Hg
* Reported Sep 4 3:20 PM — Sep 19 3:20 PM, Limburg an der Lahn, Weather by CustomWeather, © 2014

Note: Actual official high and low records may vary slightly from our data, if they occured in-between our weather recording intervals... More about our weather records

Advertising

Limburg an der Lahn weather history for previous 24 hours

 ConditionsComfort  
Time TempWeatherWind HumidityBarometerVisibility
3:20 PM
Sep 19
66 °FScattered clouds.7 mph88%29.95 "HgN/A
2:50 PM64 °FScattered clouds.6 mph94%29.95 "HgN/A
2:20 PM64 °FBroken clouds.6 mph94%29.95 "HgN/A
1:50 PM63 °FLight rain. Broken clouds.9 mph100%29.95 "Hg4 mi
1:20 PM64 °FBroken clouds.6 mph94%29.95 "HgN/A
12:50 PM66 °FBroken clouds.6 mph83%29.95 "HgN/A
12:20 PM64 °FBroken clouds.6 mph94%29.95 "HgN/A
11:50 AM64 °FScattered clouds.6 mph94%29.95 "HgN/A
11:20 AM63 °FFog.5 mph94%29.95 "HgN/A
10:50 AM61 °FScattered showers. Fog.5 mph94%29.95 "HgN/A
10:20 AM61 °FRain showers. Fog.10 mph100%29.95 "HgN/A
9:50 AM61 °FFog.6 mph100%29.92 "HgN/A
9:20 AM59 °FScattered showers. Broken clouds.2 mph100%29.92 "HgN/A
8:50 AM59 °FCool.6 mph100%29.95 "Hg1 mi
8:20 AM59 °FFog.12 mph100%29.92 "Hg1 mi
7:50 AM59 °FThundershowers. Partly cloudy.12 mph100%29.92 "Hg2 mi
9:50 PM
Sep 18
59 °FClear.6 mph100%29.92 "Hg4 mi
9:20 PM61 °FClear.8 mph100%29.92 "Hg5 mi
8:50 PM61 °FThundershowers. Passing clouds.6 mph94%29.92 "HgN/A
8:20 PM61 °FThundershowers. Broken clouds.7 mph100%29.92 "HgN/A
7:50 PM61 °FThundershowers. Scattered clouds.8 mph100%29.92 "HgN/A
7:20 PM63 °FScattered clouds.9 mph94%29.92 "HgN/A
6:50 PM63 °FScattered clouds.10 mph94%29.92 "HgN/A
6:20 PM64 °FPassing clouds.9 mph88%29.92 "HgN/A
5:50 PM66 °FPassing clouds.8 mph83%29.92 "HgN/A
5:20 PM66 °FScattered clouds.8 mph83%29.92 "HgN/A
4:50 PM66 °FScattered clouds.9 mph83%29.92 "HgN/A
4:20 PM64 °FScattered clouds.9 mph88%29.92 "HgN/A
Weather by CustomWeather, © 2014

See weather overviewHow to use our weather pages